Date String (YYYY-MM-DD hh:mm:ss) UTC,Instrument flags,Ambient pressure (hPa),Sample flow (lpm),Bypass flow (lpm),Sample temperature (°C),Ambient temperature (°C),ASC tube jacket temperature (°C),LED temperature (°C),Box temperature (°C),Sample RH (%),Span deviation,Mass concentration (μg/m³),Mass concentration (μg/m³),Mass concentration (μg/m³)
DateTimeUTC,F1_M11,P_M11,Q1_M11,Q2_M11,T1_M11,T2_M11,T3_M11,T4_M11,T5_M11,U1_M11,ZSPAN_M11,X0_M11,X2_M11,X1_M11
2021-12-11 19:00:00,,0821.0,5.01,0.00,22.4,21.8,00.0,31.5,24.1,05.9,0000.0,0007.03,0001.83,0001.34
2021-12-11 19:01:00,,0821.1,5.00,0.00,22.4,21.8,00.0,31.5,24.1,06.0,0000.0,0007.05,0001.84,0001.32
2021-12-11 19:02:00,,0821.0,4.98,0.00,22.5,21.8,00.0,31.5,24.1,06.0,0000.0,0005.41,0001.88,0001.32
2021-12-11 19:03:00,,0820.9,5.00,0.00,22.5,21.8,00.0,31.5,24.2,05.8,0000.0,0005.57,0001.96,0001.32
2021-12-11 19:04:00,,0820.9,5.01,0.00,22.5,21.8,00.0,31.5,24.2,05.8,0000.0,0005.86,0002.02,0001.32
2021-12-11 19:05:00,,0820.9,4.99,0.00,22.5,21.8,00.0,31.5,24.2,05.9,0000.0,0005.86,0002.01,0001.32
2021-12-11 19:06:00,,0821.0,5.01,0.00,22.5,21.7,00.0,31.5,24.1,05.9,0000.0,0005.84,0002.02,0001.32
2021-12-11 19:07:00,,0821.0,4.99,0.00,22.4,21.7,00.0,31.5,24.1,05.9,0000.0,0005.76,0002.02,0001.33
2021-12-11 19:08:00,,0820.9,5.00,0.00,22.4,21.7,00.0,31.5,24.1,05.9,0000.0,0005.53,0002.00,0001.34
2021-12-11 19:09:00,,0820.9,5.00,0.00,22.4,21.7,00.0,31.5,24.1,05.8,0000.0,0005.08,0002.00,0001.34
2021-12-11 19:10:00,,0821.0,5.00,0.00,22.4,21.7,00.0,31.5,24.1,05.8,0000.0,0004.21,0002.00,0001.34
2021-12-11 19:11:00,,0820.8,5.00,0.00,22.4,21.7,00.0,31.4,24.0,05.8,0000.0,0003.62,0001.96,0001.33
2021-12-11 19:12:00,,0820.8,5.00,0.00,22.4,21.7,00.0,31.5,24.0,05.8,0000.0,0003.60,0001.94,0001.34
2021-12-11 19:13:00,,0821.0,4.99,0.00,22.4,21.7,00.0,31.4,24.0,05.9,0000.0,0003.54,0001.93,0001.35
2021-12-11 19:14:00,,0820.9,5.02,0.00,22.4,21.7,00.0,31.4,24.0,05.7,0000.0,0003.39,0001.89,0001.35
2021-12-11 19:15:00,,0820.9,4.99,0.00,22.4,21.7,00.0,31.4,24.0,05.8,0000.0,0003.10,0001.83,0001.34
2021-12-11 19:16:00,,0820.8,5.00,0.00,22.4,21.7,00.0,31.4,24.1,05.9,0000.0,0003.14,0001.86,0001.34
2021-12-11 19:17:00,,0820.8,5.01,0.00,22.4,21.7,00.0,31.4,24.1,05.9,0000.0,0003.22,0001.86,0001.33
2021-12-11 19:18:00,,0820.9,4.99,0.00,22.4,21.7,00.0,31.4,24.1,05.9,0000.0,0003.21,0001.84,0001.31
2021-12-11 19:19:00,,0820.8,5.01,0.00,22.4,21.8,00.0,31.4,24.0,05.8,0000.0,0003.18,0001.78,0001.29
2021-12-11 19:20:00,,0820.7,5.00,0.00,22.4,21.8,00.0,31.4,24.0,05.9,0000.0,0003.23,0001.75,0001.27
2021-12-11 19:21:00,,0820.7,5.00,0.00,22.4,21.8,00.0,31.4,24.0,05.9,0000.0,0003.13,0001.72,0001.26
2021-12-11 19:22:00,,0820.7,4.99,0.00,22.4,21.8,00.0,31.4,24.0,05.9,0000.0,0003.18,0001.72,0001.27
2021-12-11 19:23:00,,0820.6,5.01,0.00,22.4,21.8,00.0,31.4,24.0,05.9,0000.0,0003.12,0001.73,0001.27
2021-12-11 19:24:00,,0820.7,5.00,0.00,22.4,21.8,00.0,31.4,24.0,05.9,0000.0,0003.11,0001.69,0001.25
2021-12-11 19:25:00,,0820.7,5.00,0.00,22.4,21.8,00.0,31.4,24.1,05.9,0000.0,0003.68,0001.70,0001.25
2021-12-11 19:26:00,,0820.6,4.99,0.00,22.4,21.8,00.0,31.4,24.1,05.9,0000.0,0003.87,0001.73,0001.27
2021-12-11 19:27:00,,0820.6,5.01,0.00,22.4,21.8,00.0,31.4,24.1,06.0,0000.0,0004.07,0001.70,0001.27
2021-12-11 19:28:00,,0820.6,4.99,0.00,22.4,21.8,00.0,31.4,24.1,05.8,0000.0,0004.73,0001.68,0001.25
2021-12-11 19:29:00,,0820.7,4.99,0.00,22.4,21.8,00.0,31.4,24.1,05.8,0000.0,0004.99,0001.65,0001.24
2021-12-11 19:30:00,,0820.8,5.01,0.00,22.4,21.7,00.0,31.4,24.1,05.8,0000.0,0005.02,0001.66,0001.24
2021-12-11 19:31:00,,0820.6,4.99,0.00,22.4,21.7,00.0,31.4,24.0,05.7,0000.0,0004.84,0001.66,0001.24
2021-12-11 19:32:00,,0820.6,5.00,0.00,22.4,21.7,00.0,31.4,24.0,05.7,0000.0,0004.81,0001.65,0001.21
2021-12-11 19:33:00,,0820.6,5.01,0.00,22.4,21.7,00.0,31.4,24.0,05.8,0000.0,0005.43,0001.65,0001.19
2021-12-11 19:34:00,,0820.6,4.99,0.00,22.3,21.7,00.0,31.4,24.0,05.9,0000.0,0005.46,0001.65,0001.18
2021-12-11 19:35:00,,0820.6,5.00,0.00,22.3,21.7,00.0,31.4,24.0,05.9,0000.0,0005.40,0001.66,0001.19
2021-12-11 19:36:00,,0820.6,5.00,0.00,22.3,21.7,00.0,31.4,24.0,06.0,0000.0,0005.26,0001.64,0001.19
2021-12-11 19:37:00,,0820.6,4.99,0.00,22.3,21.7,00.0,31.4,24.0,05.9,0000.0,0004.58,0001.64,0001.20
2021-12-11 19:38:00,,0820.6,5.00,0.00,22.3,21.7,00.0,31.4,24.0,05.9,0000.0,0004.59,0001.66,0001.21
2021-12-11 19:39:00,,0820.5,5.01,0.00,22.3,21.7,00.0,31.4,24.0,05.8,0000.0,0004.22,0001.75,0001.22
2021-12-11 19:40:00,,0820.6,5.00,0.00,22.3,21.7,00.0,31.4,24.0,05.9,0000.0,0003.56,0001.80,0001.23
2021-12-11 19:41:00,,0820.6,4.98,0.00,22.3,21.7,00.0,31.4,24.0,05.9,0000.0,0003.68,0001.82,0001.25
2021-12-11 19:42:00,,0820.6,5.01,0.00,22.3,21.7,00.0,31.4,24.0,05.8,0000.0,0003.69,0001.81,0001.26
2021-12-11 19:43:00,,0820.6,4.99,0.00,22.3,21.7,00.0,31.4,24.1,05.8,0000.0,0003.72,0001.84,0001.27
2021-12-11 19:44:00,,0820.6,5.01,0.00,22.4,21.8,00.0,31.4,24.1,05.8,0000.0,0003.55,0001.90,0001.29
2021-12-11 19:45:00,,0820.6,4.99,0.00,22.4,21.8,00.0,31.4,24.2,05.8,0000.0,0003.23,0001.93,0001.31
2021-12-11 19:46:00,,0820.6,5.01,0.00,22.4,21.9,00.0,31.4,24.2,05.8,0000.0,0003.28,0001.96,0001.31
2021-12-11 19:47:00,,0820.6,4.99,0.00,22.4,21.9,00.0,31.4,24.2,05.7,0000.0,0003.24,0001.94,0001.31
2021-12-11 19:48:00,,0820.4,5.00,0.00,22.4,21.9,00.0,31.4,24.2,05.7,0000.0,0003.25,0001.93,0001.29
2021-12-11 19:49:00,,0820.4,4.99,0.00,22.5,21.9,00.0,31.4,24.2,05.7,0000.0,0003.26,0001.94,0001.28
2021-12-11 19:50:00,,0820.4,5.01,0.00,22.5,21.9,00.0,31.4,24.2,05.7,0000.0,0003.13,0001.86,0001.26
2021-12-11 19:51:00,,0820.3,4.99,0.00,22.5,21.9,00.0,31.4,24.2,05.7,0000.0,0003.17,0001.78,0001.24
2021-12-11 19:52:00,,0820.2,5.01,0.00,22.5,21.9,00.0,31.4,24.2,05.7,0000.0,0003.05,0001.74,0001.21
2021-12-11 19:53:00,,0820.3,5.00,0.00,22.5,21.9,00.0,31.4,24.2,05.7,0000.0,0002.89,0001.72,0001.18
2021-12-11 19:54:00,,0820.4,5.00,0.00,22.5,21.9,00.0,31.4,24.2,05.7,0000.0,0003.23,0001.71,0001.17
2021-12-11 19:55:00,,0820.4,5.00,0.00,22.5,21.9,00.0,31.4,24.2,05.7,0000.0,0004.15,0001.64,0001.16
2021-12-11 19:56:00,,0820.2,5.00,0.00,22.5,21.9,00.0,31.4,24.2,05.6,0000.0,0004.17,0001.63,0001.15
2021-12-11 19:57:00,,0820.2,5.01,0.00,22.5,21.9,00.0,31.4,24.2,05.6,0000.0,0004.00,0001.55,0001.11
2021-12-11 19:58:00,,0820.2,4.99,0.00,22.5,21.9,00.0,31.4,24.2,05.7,0000.0,0003.98,0001.51,0001.08
2021-12-11 19:59:00,,0820.3,5.00,0.00,22.5,21.9,00.0,31.4,24.2,05.6,0000.0,0003.92,0001.47,0001.05
